Year,Month,Day,Hour,Minute,Value (Times are PST for temperature in C)
2011,06,25,00,00,11.70
2011,06,25,00,01,11.70
2011,06,25,00,02,11.70
2011,06,25,00,03,11.70
2011,06,25,00,04,11.70
2011,06,25,00,05,11.70
2011,06,25,00,06,11.70
2011,06,25,00,07,11.70
2011,06,25,00,08,11.70
2011,06,25,00,09,11.70
2011,06,25,00,10,11.70
2011,06,25,00,11,11.60
2011,06,25,00,12,11.60
2011,06,25,00,13,11.60
2011,06,25,00,14,11.60
2011,06,25,00,15,11.60
2011,06,25,00,16,11.60
2011,06,25,00,17,11.60
2011,06,25,00,18,11.60
2011,06,25,00,19,11.60
2011,06,25,00,20,11.60
2011,06,25,00,21,11.60
2011,06,25,00,22,11.60
2011,06,25,00,23,11.60
2011,06,25,00,24,11.50
2011,06,25,00,25,11.50
2011,06,25,00,26,11.50
2011,06,25,00,27,11.50
2011,06,25,00,28,11.50
2011,06,25,00,29,11.50
2011,06,25,00,30,11.50
2011,06,25,00,31,11.50
2011,06,25,00,32,11.50
2011,06,25,00,33,11.50
2011,06,25,00,34,11.50
2011,06,25,00,35,11.50
2011,06,25,00,36,11.50
2011,06,25,00,37,11.50
2011,06,25,00,38,11.50
2011,06,25,00,39,11.50
2011,06,25,00,40,11.50
2011,06,25,00,41,11.50
2011,06,25,00,42,11.50
2011,06,25,00,43,11.50
2011,06,25,00,44,11.50
2011,06,25,00,45,11.50
2011,06,25,00,46,11.50
2011,06,25,00,47,11.40
2011,06,25,00,48,11.40
2011,06,25,00,49,11.40
2011,06,25,00,50,11.40
2011,06,25,00,51,11.40
2011,06,25,00,52,11.40
2011,06,25,00,53,11.40
2011,06,25,00,54,11.40
2011,06,25,00,55,11.40
2011,06,25,00,56,11.40
2011,06,25,00,57,11.40
2011,06,25,00,58,11.40
2011,06,25,00,59,11.40
2011,06,25,01,00,11.40
2011,06,25,01,01,11.40
2011,06,25,01,02,11.40
2011,06,25,01,03,11.40
2011,06,25,01,04,11.40
2011,06,25,01,05,11.40
2011,06,25,01,06,11.40
2011,06,25,01,07,11.40
2011,06,25,01,08,11.40
2011,06,25,01,09,11.40
2011,06,25,01,10,11.40
2011,06,25,01,11,11.40
2011,06,25,01,12,11.40
2011,06,25,01,13,11.40
2011,06,25,01,14,11.40
2011,06,25,01,15,11.40
2011,06,25,01,16,11.40
2011,06,25,01,17,11.40
2011,06,25,01,18,11.40
2011,06,25,01,19,11.40
2011,06,25,01,20,11.40
2011,06,25,01,21,11.40
2011,06,25,01,22,11.40
2011,06,25,01,23,11.40
2011,06,25,01,24,11.30
2011,06,25,01,25,11.30
2011,06,25,01,26,11.30
2011,06,25,01,27,11.30
2011,06,25,01,28,11.30
2011,06,25,01,29,11.30
2011,06,25,01,30,11.30
2011,06,25,01,31,11.30
2011,06,25,01,32,11.30
2011,06,25,01,33,11.30
2011,06,25,01,34,11.30
2011,06,25,01,35,11.30
2011,06,25,01,36,11.30
2011,06,25,01,37,11.30
2011,06,25,01,38,11.30
2011,06,25,01,39,11.30
2011,06,25,01,40,11.30
2011,06,25,01,41,11.30
2011,06,25,01,42,11.30
2011,06,25,01,43,11.30
2011,06,25,01,44,11.30
2011,06,25,01,45,11.30
2011,06,25,01,46,11.30
2011,06,25,01,47,11.30
2011,06,25,01,48,11.30
2011,06,25,01,49,11.30
2011,06,25,01,50,11.30
2011,06,25,01,51,11.30
2011,06,25,01,52,11.30
2011,06,25,01,53,11.30
2011,06,25,01,54,11.30
2011,06,25,01,55,11.30
2011,06,25,01,56,11.30
2011,06,25,01,57,11.30
2011,06,25,01,58,11.30
2011,06,25,01,59,11.30
2011,06,25,02,00,11.30
2011,06,25,02,01,11.20
2011,06,25,02,02,11.20
2011,06,25,02,03,11.20
2011,06,25,02,04,11.20
2011,06,25,02,05,11.20
2011,06,25,02,06,11.20
2011,06,25,02,07,11.20
2011,06,25,02,08,11.10
2011,06,25,02,09,11.10
2011,06,25,02,10,11.10
2011,06,25,02,11,11.10
2011,06,25,02,12,11.10
2011,06,25,02,13,11.10
2011,06,25,02,14,11.10
2011,06,25,02,15,11.10
2011,06,25,02,16,11.10
2011,06,25,02,17,11.10
2011,06,25,02,18,11.10
2011,06,25,02,19,11.10
2011,06,25,02,20,11.10
2011,06,25,02,21,11.10
2011,06,25,02,22,11.00
2011,06,25,02,23,11.00
2011,06,25,02,24,11.00
2011,06,25,02,25,11.00
2011,06,25,02,26,11.00
2011,06,25,02,27,11.00
2011,06,25,02,28,11.00
2011,06,25,02,29,11.00
2011,06,25,02,30,11.00
2011,06,25,02,31,11.00
2011,06,25,02,32,11.00
2011,06,25,02,33,11.00
2011,06,25,02,34,11.00
2011,06,25,02,35,11.00
2011,06,25,02,36,11.00
2011,06,25,02,37,11.00
2011,06,25,02,38,11.00
2011,06,25,02,39,11.00
2011,06,25,02,40,11.00
2011,06,25,02,41,11.00
2011,06,25,02,42,11.00
2011,06,25,02,43,11.00
2011,06,25,02,44,11.00
2011,06,25,02,45,11.00
2011,06,25,02,46,11.00
2011,06,25,02,47,11.00
2011,06,25,02,48,11.00
2011,06,25,02,49,11.00
2011,06,25,02,50,11.00
2011,06,25,02,51,11.00
2011,06,25,02,52,11.00
2011,06,25,02,53,11.00
2011,06,25,02,54,11.00
2011,06,25,02,55,11.00
2011,06,25,02,56,11.00
2011,06,25,02,57,11.00
2011,06,25,02,58,11.00
2011,06,25,02,59,11.00
2011,06,25,03,00,11.00
2011,06,25,03,01,11.00
2011,06,25,03,02,11.00
2011,06,25,03,03,11.00
2011,06,25,03,04,11.00
2011,06,25,03,05,11.00
2011,06,25,03,06,11.00
2011,06,25,03,07,11.00
2011,06,25,03,08,11.00
2011,06,25,03,09,11.00
2011,06,25,03,10,11.00
2011,06,25,03,11,11.00
2011,06,25,03,12,11.00
2011,06,25,03,13,11.00
2011,06,25,03,14,11.00
2011,06,25,03,15,11.00
2011,06,25,03,16,11.00
2011,06,25,03,17,11.00
2011,06,25,03,18,11.00
2011,06,25,03,19,11.00
2011,06,25,03,20,11.00
2011,06,25,03,21,11.00
2011,06,25,03,22,11.00
2011,06,25,03,23,11.00
2011,06,25,03,24,11.00
2011,06,25,03,25,11.00
2011,06,25,03,26,11.10
2011,06,25,03,27,11.10
2011,06,25,03,28,11.10
2011,06,25,03,29,11.10
2011,06,25,03,30,11.10
2011,06,25,03,31,11.10
2011,06,25,03,32,11.10
2011,06,25,03,33,11.10
2011,06,25,03,34,11.10
2011,06,25,03,35,11.10
2011,06,25,03,36,11.10
2011,06,25,03,37,11.10
2011,06,25,03,38,11.10
2011,06,25,03,39,11.10
2011,06,25,03,40,11.10
2011,06,25,03,41,11.10
2011,06,25,03,42,11.10
2011,06,25,03,43,11.10
2011,06,25,03,44,11.10
2011,06,25,03,45,11.10
2011,06,25,03,46,11.10
2011,06,25,03,47,11.10
2011,06,25,03,48,11.10
2011,06,25,03,49,11.10
2011,06,25,03,50,11.10
2011,06,25,03,51,11.10
2011,06,25,03,52,11.10
2011,06,25,03,53,11.10
2011,06,25,03,54,11.10
2011,06,25,03,55,11.10
2011,06,25,03,56,11.10
2011,06,25,03,57,11.10
2011,06,25,03,58,11.10
2011,06,25,03,59,11.10
2011,06,25,04,00,11.10
2011,06,25,04,01,11.10
2011,06,25,04,02,11.10
2011,06,25,04,03,11.10
2011,06,25,04,04,11.10
2011,06,25,04,05,11.10
2011,06,25,04,06,11.10
2011,06,25,04,07,11.10
2011,06,25,04,08,11.10
2011,06,25,04,09,11.10
2011,06,25,04,10,11.10
2011,06,25,04,11,11.10
2011,06,25,04,12,11.10
2011,06,25,04,13,11.10
2011,06,25,04,14,11.10
2011,06,25,04,15,11.10
2011,06,25,04,16,11.10
2011,06,25,04,17,11.10
2011,06,25,04,18,11.10
2011,06,25,04,19,11.00
2011,06,25,04,20,11.00
2011,06,25,04,21,11.00
2011,06,25,04,22,11.00
2011,06,25,04,23,11.00
2011,06,25,04,24,11.00
2011,06,25,04,25,11.00
2011,06,25,04,26,11.00
2011,06,25,04,27,11.00
2011,06,25,04,28,11.00
2011,06,25,04,29,10.90
2011,06,25,04,30,10.90
2011,06,25,04,31,10.90
2011,06,25,04,32,10.90
2011,06,25,04,33,10.90
2011,06,25,04,34,10.90
2011,06,25,04,35,10.90
2011,06,25,04,36,10.90
2011,06,25,04,37,10.90
2011,06,25,04,38,10.90
2011,06,25,04,39,10.90
2011,06,25,04,40,10.90
2011,06,25,04,41,10.90
2011,06,25,04,42,10.90
2011,06,25,04,43,10.90
2011,06,25,04,44,10.90
2011,06,25,04,45,10.90
2011,06,25,04,46,10.90
2011,06,25,04,47,10.90
2011,06,25,04,48,10.90
2011,06,25,04,49,10.90
2011,06,25,04,50,10.90
2011,06,25,04,51,10.90
2011,06,25,04,52,10.90
2011,06,25,04,53,10.90
2011,06,25,04,54,10.90
2011,06,25,04,55,10.90
2011,06,25,04,56,10.90
2011,06,25,04,57,10.80
2011,06,25,04,58,10.80
2011,06,25,04,59,10.80
2011,06,25,05,00,10.80
2011,06,25,05,01,10.80
2011,06,25,05,02,10.80
2011,06,25,05,03,10.80
2011,06,25,05,04,10.80
2011,06,25,05,05,10.80
2011,06,25,05,06,10.80
2011,06,25,05,07,10.80
2011,06,25,05,08,10.80
2011,06,25,05,09,10.80
2011,06,25,05,10,10.80
2011,06,25,05,11,10.70
2011,06,25,05,12,10.70
2011,06,25,05,13,10.70
2011,06,25,05,14,10.70
2011,06,25,05,15,10.70
2011,06,25,05,16,10.70
2011,06,25,05,17,10.70
2011,06,25,05,18,10.70
2011,06,25,05,19,10.70
2011,06,25,05,20,10.70
2011,06,25,05,21,10.70
2011,06,25,05,22,10.70
2011,06,25,05,23,10.70
2011,06,25,05,24,10.70
2011,06,25,05,25,10.70
2011,06,25,05,26,10.70
2011,06,25,05,27,10.70
2011,06,25,05,28,10.70
2011,06,25,05,29,10.70
2011,06,25,05,30,10.70
2011,06,25,05,31,10.70
2011,06,25,05,32,10.70
2011,06,25,05,33,10.70
2011,06,25,05,34,10.70
2011,06,25,05,35,10.70
2011,06,25,05,36,10.70
2011,06,25,05,37,10.70
2011,06,25,05,38,10.70
2011,06,25,05,39,10.70
2011,06,25,05,40,10.70
2011,06,25,05,41,10.70
2011,06,25,05,42,10.70
2011,06,25,05,43,10.70
2011,06,25,05,44,10.70
2011,06,25,05,45,10.70
2011,06,25,05,46,10.70
2011,06,25,05,47,10.70
2011,06,25,05,48,10.70
2011,06,25,05,49,10.70
2011,06,25,05,50,10.70
2011,06,25,05,51,10.70
2011,06,25,05,52,10.70
2011,06,25,05,53,10.70
2011,06,25,05,54,10.70
2011,06,25,05,55,10.70
2011,06,25,05,56,10.70
2011,06,25,05,57,10.70
2011,06,25,05,58,10.70
2011,06,25,05,59,10.70
2011,06,25,06,00,10.70
2011,06,25,06,01,10.70
2011,06,25,06,02,10.70
2011,06,25,06,03,10.70
2011,06,25,06,04,10.70
2011,06,25,06,05,10.70
2011,06,25,06,06,10.70
2011,06,25,06,07,10.70
2011,06,25,06,08,10.70
2011,06,25,06,09,10.70
2011,06,25,06,10,10.70
2011,06,25,06,11,10.70
2011,06,25,06,12,10.70
2011,06,25,06,13,10.70
2011,06,25,06,14,10.70
2011,06,25,06,15,10.70
2011,06,25,06,16,10.70
2011,06,25,06,17,10.70
2011,06,25,06,18,10.70
2011,06,25,06,19,10.80
2011,06,25,06,20,10.80
2011,06,25,06,21,10.80
2011,06,25,06,22,10.80
2011,06,25,06,23,10.80
2011,06,25,06,24,10.80
2011,06,25,06,25,10.80
2011,06,25,06,26,10.80
2011,06,25,06,27,10.80
2011,06,25,06,28,10.90
2011,06,25,06,29,10.90
2011,06,25,06,30,10.90
2011,06,25,06,31,10.90
2011,06,25,06,32,10.90
2011,06,25,06,33,10.90
2011,06,25,06,34,10.90
2011,06,25,06,35,10.90
2011,06,25,06,36,10.90
2011,06,25,06,37,10.90
2011,06,25,06,38,11.00
2011,06,25,06,39,11.00
2011,06,25,06,40,11.00
2011,06,25,06,41,11.00
2011,06,25,06,42,11.00
2011,06,25,06,43,11.10
2011,06,25,06,44,11.10
2011,06,25,06,45,11.10
2011,06,25,06,46,11.10
2011,06,25,06,47,11.10
2011,06,25,06,48,11.10
2011,06,25,06,49,11.10
2011,06,25,06,50,11.20
2011,06,25,06,51,11.20
2011,06,25,06,52,11.20
2011,06,25,06,53,11.20
2011,06,25,06,54,11.20
2011,06,25,06,55,11.20
2011,06,25,06,56,11.20
2011,06,25,06,57,11.20
2011,06,25,06,58,11.20
2011,06,25,06,59,11.20
2011,06,25,07,00,11.20
2011,06,25,07,01,11.20
2011,06,25,07,02,11.30
2011,06,25,07,03,11.30
2011,06,25,07,04,11.30
2011,06,25,07,05,11.30
2011,06,25,07,06,11.30
2011,06,25,07,07,11.30
2011,06,25,07,08,11.30
2011,06,25,07,09,11.30
2011,06,25,07,10,11.30
2011,06,25,07,11,11.30
2011,06,25,07,12,11.30
2011,06,25,07,13,11.30
2011,06,25,07,14,11.30
2011,06,25,07,15,11.30
2011,06,25,07,16,11.30
2011,06,25,07,17,11.40
2011,06,25,07,18,11.40
2011,06,25,07,19,11.40
2011,06,25,07,20,11.40
2011,06,25,07,21,11.40
2011,06,25,07,22,11.40
2011,06,25,07,23,11.40
2011,06,25,07,24,11.40
2011,06,25,07,25,11.50
2011,06,25,07,26,11.50
2011,06,25,07,27,11.50
2011,06,25,07,28,11.50
2011,06,25,07,29,11.50
2011,06,25,07,30,11.60
2011,06,25,07,31,11.60
2011,06,25,07,32,11.60
2011,06,25,07,33,11.60
2011,06,25,07,34,11.60
2011,06,25,07,35,11.60
2011,06,25,07,36,11.60
2011,06,25,07,37,11.60
2011,06,25,07,38,11.70
2011,06,25,07,39,11.70
2011,06,25,07,40,11.70
2011,06,25,07,41,11.70
2011,06,25,07,42,11.70
2011,06,25,07,43,11.70
2011,06,25,07,44,11.70
2011,06,25,07,45,11.70
2011,06,25,07,46,11.80
2011,06,25,07,47,11.80
2011,06,25,07,48,11.80
2011,06,25,07,49,11.80
2011,06,25,07,50,11.80
2011,06,25,07,51,11.80
2011,06,25,07,52,11.80
2011,06,25,07,53,11.90
2011,06,25,07,54,11.90
2011,06,25,07,55,11.90
2011,06,25,07,56,11.90
2011,06,25,07,57,11.90
2011,06,25,07,58,11.90
2011,06,25,07,59,11.90
2011,06,25,08,00,12.00
2011,06,25,08,01,12.00
2011,06,25,08,02,12.00
2011,06,25,08,03,12.00
2011,06,25,08,04,12.10
2011,06,25,08,05,12.10
2011,06,25,08,06,12.10
2011,06,25,08,07,12.10
2011,06,25,08,08,12.20
2011,06,25,08,09,12.20
2011,06,25,08,10,12.20
2011,06,25,08,11,12.20
2011,06,25,08,12,12.20
2011,06,25,08,13,12.20
2011,06,25,08,14,12.20
2011,06,25,08,15,12.20
2011,06,25,08,16,12.30
2011,06,25,08,17,12.30
2011,06,25,08,18,12.30
2011,06,25,08,19,12.30
2011,06,25,08,20,12.40
2011,06,25,08,21,12.40
2011,06,25,08,22,12.40
2011,06,25,08,23,12.40
2011,06,25,08,24,12.50
2011,06,25,08,25,12.50
2011,06,25,08,26,12.50
2011,06,25,08,27,12.60
2011,06,25,08,28,12.60
2011,06,25,08,29,12.60
2011,06,25,08,30,12.60
2011,06,25,08,31,12.60
2011,06,25,08,32,12.70
2011,06,25,08,33,12.70
2011,06,25,08,34,12.70
2011,06,25,08,35,12.70
2011,06,25,08,36,12.80
2011,06,25,08,37,12.80
2011,06,25,08,38,12.80
2011,06,25,08,39,12.80
2011,06,25,08,40,12.80
2011,06,25,08,41,12.90
2011,06,25,08,42,12.90
2011,06,25,08,43,12.90
2011,06,25,08,44,12.90
2011,06,25,08,45,12.90
2011,06,25,08,46,13.00
2011,06,25,08,47,13.00
2011,06,25,08,48,13.10
2011,06,25,08,49,13.10
2011,06,25,08,50,13.20
2011,06,25,08,51,13.20
2011,06,25,08,52,13.20
2011,06,25,08,53,13.20
2011,06,25,08,54,13.20
2011,06,25,08,55,13.20
2011,06,25,08,56,13.30
2011,06,25,08,57,13.30
2011,06,25,08,58,13.30
2011,06,25,08,59,13.40
2011,06,25,09,00,13.40
2011,06,25,09,01,13.50
2011,06,25,09,02,13.50
2011,06,25,09,03,13.50
2011,06,25,09,04,13.60
2011,06,25,09,05,13.60
2011,06,25,09,06,13.60
2011,06,25,09,07,13.60
2011,06,25,09,08,13.60
2011,06,25,09,09,13.60
2011,06,25,09,10,13.60
2011,06,25,09,11,13.60
2011,06,25,09,12,13.50
2011,06,25,09,13,13.50
2011,06,25,09,14,13.60
2011,06,25,09,15,13.60
2011,06,25,09,16,13.60
2011,06,25,09,17,13.60
2011,06,25,09,18,13.60
2011,06,25,09,19,13.60
2011,06,25,09,20,13.70
2011,06,25,09,21,13.70
2011,06,25,09,22,13.70
2011,06,25,09,23,13.70
2011,06,25,09,24,13.80
2011,06,25,09,25,13.80
2011,06,25,09,26,13.80
2011,06,25,09,27,13.80
2011,06,25,09,28,13.90
2011,06,25,09,29,14.00
2011,06,25,09,30,14.00
2011,06,25,09,31,14.10
2011,06,25,09,32,14.20
2011,06,25,09,33,14.20
2011,06,25,09,34,14.20
2011,06,25,09,35,14.30
2011,06,25,09,36,14.30
2011,06,25,09,37,14.30
2011,06,25,09,38,14.40
2011,06,25,09,39,14.40
2011,06,25,09,40,14.40
2011,06,25,09,41,14.50
2011,06,25,09,42,14.50
2011,06,25,09,43,14.40
2011,06,25,09,44,14.50
2011,06,25,09,45,14.50
2011,06,25,09,46,14.60
2011,06,25,09,47,14.70
2011,06,25,09,48,14.70
2011,06,25,09,49,14.80
2011,06,25,09,50,14.90
2011,06,25,09,51,14.90
2011,06,25,09,52,15.00
2011,06,25,09,53,15.10
2011,06,25,09,54,15.10
2011,06,25,09,55,15.20
2011,06,25,09,56,15.20
2011,06,25,09,57,15.10
2011,06,25,09,58,15.10
2011,06,25,09,59,15.00
2011,06,25,10,00,15.00
2011,06,25,10,01,15.00
2011,06,25,10,02,15.10
2011,06,25,10,03,15.10
2011,06,25,10,04,15.10
2011,06,25,10,05,15.20
2011,06,25,10,06,15.20
2011,06,25,10,07,15.30
2011,06,25,10,08,15.30
2011,06,25,10,09,15.30
2011,06,25,10,10,15.30
2011,06,25,10,11,15.40
2011,06,25,10,12,15.50
2011,06,25,10,13,15.50
2011,06,25,10,14,15.40
2011,06,25,10,15,15.40
2011,06,25,10,16,15.40
2011,06,25,10,17,15.40
2011,06,25,10,18,15.40
2011,06,25,10,19,15.40
2011,06,25,10,20,15.40
2011,06,25,10,21,15.40
2011,06,25,10,22,15.40
2011,06,25,10,23,15.40
2011,06,25,10,24,15.40
2011,06,25,10,25,15.40
2011,06,25,10,26,15.40
2011,06,25,10,27,15.40
2011,06,25,10,28,15.40
2011,06,25,10,29,15.40
2011,06,25,10,30,15.40
2011,06,25,10,31,15.50
2011,06,25,10,32,15.60
2011,06,25,10,33,15.60
2011,06,25,10,34,15.70
2011,06,25,10,35,15.70
2011,06,25,10,36,15.70
2011,06,25,10,37,15.70
2011,06,25,10,38,15.70
2011,06,25,10,39,15.70
2011,06,25,10,40,15.70
2011,06,25,10,41,15.70
2011,06,25,10,42,15.70
2011,06,25,10,43,15.70
2011,06,25,10,44,15.70
2011,06,25,10,45,15.70
2011,06,25,10,46,15.70
2011,06,25,10,47,15.70
2011,06,25,10,48,15.70
2011,06,25,10,49,15.70
2011,06,25,10,50,15.70
2011,06,25,10,51,15.70
2011,06,25,10,52,15.70
2011,06,25,10,53,15.70
2011,06,25,10,54,15.70
2011,06,25,10,55,15.70
2011,06,25,10,56,15.70
2011,06,25,10,57,15.70
2011,06,25,10,58,15.70
2011,06,25,10,59,15.70
2011,06,25,11,00,15.60
2011,06,25,11,01,15.60
2011,06,25,11,02,15.60
2011,06,25,11,03,15.60
2011,06,25,11,04,15.60
2011,06,25,11,05,15.50
2011,06,25,11,06,15.50
2011,06,25,11,07,15.50
2011,06,25,11,08,15.50
2011,06,25,11,09,15.50
2011,06,25,11,10,15.60
2011,06,25,11,11,15.70
2011,06,25,11,12,15.70
2011,06,25,11,13,15.70
2011,06,25,11,14,15.80
2011,06,25,11,15,15.80
2011,06,25,11,16,15.80
2011,06,25,11,17,15.80
2011,06,25,11,18,15.80
2011,06,25,11,19,15.90
2011,06,25,11,20,15.90
2011,06,25,11,21,16.00
2011,06,25,11,22,16.00
2011,06,25,11,23,16.10
2011,06,25,11,24,16.10
2011,06,25,11,25,16.20
2011,06,25,11,26,16.20
2011,06,25,11,27,16.30
2011,06,25,11,28,16.30
2011,06,25,11,29,16.30
2011,06,25,11,30,16.40
2011,06,25,11,31,16.40
2011,06,25,11,32,16.40
2011,06,25,11,33,16.40
2011,06,25,11,34,16.30
2011,06,25,11,35,16.30
2011,06,25,11,36,16.30
2011,06,25,11,37,16.30
2011,06,25,11,38,16.30
2011,06,25,11,39,16.30
2011,06,25,11,40,16.30
2011,06,25,11,41,16.30
2011,06,25,11,42,16.20
2011,06,25,11,43,16.20
2011,06,25,11,44,16.20
2011,06,25,11,45,16.20
2011,06,25,11,46,16.20
2011,06,25,11,47,16.20
2011,06,25,11,48,16.30
2011,06,25,11,49,16.30
2011,06,25,11,50,16.30
2011,06,25,11,51,16.30
2011,06,25,11,52,16.40
2011,06,25,11,53,16.40
2011,06,25,11,54,16.50
2011,06,25,11,55,16.60
2011,06,25,11,56,16.70
2011,06,25,11,57,16.70
2011,06,25,11,58,16.70
2011,06,25,11,59,16.80
2011,06,25,12,00,16.80
2011,06,25,12,01,16.90
2011,06,25,12,02,17.00
2011,06,25,12,03,17.00
2011,06,25,12,04,17.10
2011,06,25,12,05,17.10
2011,06,25,12,06,17.10
2011,06,25,12,07,17.10
2011,06,25,12,08,17.20
2011,06,25,12,09,17.20
2011,06,25,12,10,17.20
2011,06,25,12,11,17.20
2011,06,25,12,12,17.20
2011,06,25,12,13,17.10
2011,06,25,12,14,17.10
2011,06,25,12,15,17.10
2011,06,25,12,16,17.10
2011,06,25,12,17,17.10
2011,06,25,12,18,17.00
2011,06,25,12,19,17.00
2011,06,25,12,20,17.00
2011,06,25,12,21,17.00
2011,06,25,12,22,16.90
2011,06,25,12,23,16.90
2011,06,25,12,24,16.90
2011,06,25,12,25,16.90
2011,06,25,12,26,16.90
2011,06,25,12,27,16.80
2011,06,25,12,28,16.80
2011,06,25,12,29,16.90
2011,06,25,12,30,16.90
2011,06,25,12,31,16.80
2011,06,25,12,32,16.80
2011,06,25,12,33,16.80
2011,06,25,12,34,16.90
2011,06,25,12,35,17.00
2011,06,25,12,36,17.10
2011,06,25,12,37,17.10
2011,06,25,12,38,17.10
2011,06,25,12,39,17.20
2011,06,25,12,40,17.30
2011,06,25,12,41,17.40
2011,06,25,12,42,17.40
2011,06,25,12,43,17.40
2011,06,25,12,44,17.50
2011,06,25,12,45,17.60
2011,06,25,12,46,17.70
2011,06,25,12,47,17.80
2011,06,25,12,48,17.90
2011,06,25,12,49,17.80
2011,06,25,12,50,17.80
2011,06,25,12,51,17.70
2011,06,25,12,52,17.70
2011,06,25,12,53,17.60
2011,06,25,12,54,17.60
2011,06,25,12,55,17.50
2011,06,25,12,56,17.50
2011,06,25,12,57,17.40
2011,06,25,12,58,17.40
2011,06,25,12,59,17.40
2011,06,25,13,00,17.40
2011,06,25,13,01,17.40
2011,06,25,13,02,17.40
2011,06,25,13,03,17.40
2011,06,25,13,04,17.40
2011,06,25,13,05,17.40
2011,06,25,13,06,17.40
2011,06,25,13,07,17.30
2011,06,25,13,08,17.30
2011,06,25,13,09,17.20
2011,06,25,13,10,17.20
2011,06,25,13,11,17.20
2011,06,25,13,12,17.10
2011,06,25,13,13,17.10
2011,06,25,13,14,17.00
2011,06,25,13,15,17.00
2011,06,25,13,16,16.90
2011,06,25,13,17,16.80
2011,06,25,13,18,16.80
2011,06,25,13,19,16.70
2011,06,25,13,20,16.60
2011,06,25,13,21,16.60
2011,06,25,13,22,16.50
2011,06,25,13,23,16.40
2011,06,25,13,24,16.30
2011,06,25,13,25,16.30
2011,06,25,13,26,16.30
2011,06,25,13,27,16.20
2011,06,25,13,28,16.10
2011,06,25,13,29,16.10
2011,06,25,13,30,16.00
2011,06,25,13,31,16.00
2011,06,25,13,32,15.90
2011,06,25,13,33,15.80
2011,06,25,13,34,15.80
2011,06,25,13,35,15.80
2011,06,25,13,36,15.70
2011,06,25,13,37,15.70
2011,06,25,13,38,15.60
2011,06,25,13,39,15.60
2011,06,25,13,40,15.50
2011,06,25,13,41,15.50
2011,06,25,13,42,15.50
2011,06,25,13,43,15.40
2011,06,25,13,44,15.40
2011,06,25,13,45,15.40
2011,06,25,13,46,15.40
2011,06,25,13,47,15.50
2011,06,25,13,48,15.50
2011,06,25,13,49,15.60
2011,06,25,13,50,15.60
2011,06,25,13,51,15.70
2011,06,25,13,52,15.80
2011,06,25,13,53,15.90
2011,06,25,13,54,16.00
2011,06,25,13,55,16.10
2011,06,25,13,56,16.10
2011,06,25,13,57,16.20
2011,06,25,13,58,16.30
2011,06,25,13,59,16.30
2011,06,25,14,00,16.40
2011,06,25,14,01,16.40
2011,06,25,14,02,16.40
2011,06,25,14,03,16.50
2011,06,25,14,04,16.50
2011,06,25,14,05,16.50
2011,06,25,14,06,16.50
2011,06,25,14,07,16.60
2011,06,25,14,08,16.50
2011,06,25,14,09,16.60
2011,06,25,14,10,16.60
2011,06,25,14,11,16.60
2011,06,25,14,12,16.60
2011,06,25,14,13,16.50
2011,06,25,14,14,16.50
2011,06,25,14,15,16.50
2011,06,25,14,16,16.40
2011,06,25,14,17,16.40
2011,06,25,14,18,16.40
2011,06,25,14,19,16.40
2011,06,25,14,20,16.40
2011,06,25,14,21,16.40
2011,06,25,14,22,16.30
2011,06,25,14,23,16.30
2011,06,25,14,24,16.30
2011,06,25,14,25,16.40
2011,06,25,14,26,16.40
2011,06,25,14,27,16.40
2011,06,25,14,28,16.50
2011,06,25,14,29,16.50
2011,06,25,14,30,16.50
2011,06,25,14,31,16.60
2011,06,25,14,32,16.60
2011,06,25,14,33,16.60
2011,06,25,14,34,16.60
2011,06,25,14,35,16.70
2011,06,25,14,36,16.70
2011,06,25,14,37,16.70
2011,06,25,14,38,16.80
2011,06,25,14,39,16.80
2011,06,25,14,40,16.90
2011,06,25,14,41,16.90
2011,06,25,14,42,17.00
2011,06,25,14,43,17.00
2011,06,25,14,44,17.10
2011,06,25,14,45,17.10
2011,06,25,14,46,17.10
2011,06,25,14,47,17.20
2011,06,25,14,48,17.10
2011,06,25,14,49,17.10
2011,06,25,14,50,17.10
2011,06,25,14,51,17.10
2011,06,25,14,52,17.10
2011,06,25,14,53,17.10
2011,06,25,14,54,17.10
2011,06,25,14,55,17.20
2011,06,25,14,56,17.20
2011,06,25,14,57,17.20
2011,06,25,14,58,17.30
2011,06,25,14,59,17.30
2011,06,25,15,00,17.40
2011,06,25,15,01,17.40
2011,06,25,15,02,17.40
2011,06,25,15,03,17.40
2011,06,25,15,04,17.40
2011,06,25,15,05,17.50
2011,06,25,15,06,17.50
2011,06,25,15,07,17.50
2011,06,25,15,08,17.50
2011,06,25,15,09,17.60
2011,06,25,15,10,17.60
2011,06,25,15,11,17.60
2011,06,25,15,12,17.70
2011,06,25,15,13,17.70
2011,06,25,15,14,17.80
2011,06,25,15,15,17.80
2011,06,25,15,16,17.70
2011,06,25,15,17,17.70
2011,06,25,15,18,17.60
2011,06,25,15,19,17.60
2011,06,25,15,20,17.60
2011,06,25,15,21,17.60
2011,06,25,15,22,17.60
2011,06,25,15,23,17.60
2011,06,25,15,24,17.70
2011,06,25,15,25,17.70
2011,06,25,15,26,17.60
2011,06,25,15,27,17.60
2011,06,25,15,28,17.60
2011,06,25,15,29,17.50
2011,06,25,15,30,17.40
2011,06,25,15,31,17.30
2011,06,25,15,32,17.30
2011,06,25,15,33,17.30
2011,06,25,15,34,17.20
2011,06,25,15,35,17.20
2011,06,25,15,36,17.20
2011,06,25,15,37,17.10
2011,06,25,15,38,17.10
2011,06,25,15,39,17.10
2011,06,25,15,40,17.10
2011,06,25,15,41,17.00
2011,06,25,15,42,17.00
2011,06,25,15,43,16.90
2011,06,25,15,44,16.90
2011,06,25,15,45,16.90
2011,06,25,15,46,16.90
2011,06,25,15,47,16.90
2011,06,25,15,48,16.90
2011,06,25,15,49,16.90
2011,06,25,15,50,16.90
2011,06,25,15,51,17.00
2011,06,25,15,52,17.00
2011,06,25,15,53,17.00
2011,06,25,15,54,17.00
2011,06,25,15,55,17.00
2011,06,25,15,56,17.00
2011,06,25,15,57,17.00
2011,06,25,15,58,17.00
2011,06,25,15,59,16.90
2011,06,25,16,00,16.90
2011,06,25,16,01,16.90
2011,06,25,16,02,16.90
2011,06,25,16,03,16.90
2011,06,25,16,04,16.90
2011,06,25,16,05,16.90
2011,06,25,16,06,17.00
2011,06,25,16,07,17.00
2011,06,25,16,08,17.10
2011,06,25,16,09,17.10
2011,06,25,16,10,17.10
2011,06,25,16,11,17.10
2011,06,25,16,12,17.10
2011,06,25,16,13,17.10
2011,06,25,16,14,17.10
2011,06,25,16,15,17.00
2011,06,25,16,16,17.10
2011,06,25,16,17,17.10
2011,06,25,16,18,17.00
2011,06,25,16,19,17.00
2011,06,25,16,20,17.00
2011,06,25,16,21,17.00
2011,06,25,16,22,17.00
2011,06,25,16,23,16.90
2011,06,25,16,24,16.90
2011,06,25,16,25,16.90
2011,06,25,16,26,16.90
2011,06,25,16,27,16.90
2011,06,25,16,28,16.80
2011,06,25,16,29,16.80
2011,06,25,16,30,16.80
2011,06,25,16,31,16.80
2011,06,25,16,32,16.80
2011,06,25,16,33,16.80
2011,06,25,16,34,16.80
2011,06,25,16,35,16.90
2011,06,25,16,36,16.90
2011,06,25,16,37,16.90
2011,06,25,16,38,16.90
2011,06,25,16,39,16.90
2011,06,25,16,40,16.90
2011,06,25,16,41,16.90
2011,06,25,16,42,16.90
2011,06,25,16,43,16.90
2011,06,25,16,44,16.90
2011,06,25,16,45,16.90
2011,06,25,16,46,16.90
2011,06,25,16,47,16.90
2011,06,25,16,48,17.00
2011,06,25,16,49,17.00
2011,06,25,16,50,17.00
2011,06,25,16,51,17.00
2011,06,25,16,52,17.10
2011,06,25,16,53,17.10
2011,06,25,16,54,17.10
2011,06,25,16,55,17.10
2011,06,25,16,56,17.10
2011,06,25,16,57,17.10
2011,06,25,16,58,17.10
2011,06,25,16,59,17.10
2011,06,25,17,00,17.10
2011,06,25,17,01,17.10
2011,06,25,17,02,17.10
2011,06,25,17,03,17.10
2011,06,25,17,04,17.10
2011,06,25,17,05,17.10
2011,06,25,17,06,17.10
2011,06,25,17,07,17.10
2011,06,25,17,08,17.10
2011,06,25,17,09,17.10
2011,06,25,17,10,17.10
2011,06,25,17,11,17.10
2011,06,25,17,12,17.20
2011,06,25,17,13,17.20
2011,06,25,17,14,17.20
2011,06,25,17,15,17.20
2011,06,25,17,16,17.20
2011,06,25,17,17,17.10
2011,06,25,17,18,17.10
2011,06,25,17,19,17.10